,,,PA_Meas_PMT16A,,PR_Meas_QMR101_102,,RH_Meas_QMH101,,SR_Meas_QMS101,,TA_Meas_QMH101,,GenWind,,GenWind,
date,time,status,PA,status,PR,status,RH,status,SR,status,TA,status,DirAvg,status,SpdAvg,
2010-01-27, 00:00:04,VALID,1005.42,VALID,0,VALID,90.8371,VALID,0,VALID,23.9353,VALID,126,VALID,0.679688,
2010-01-27, 00:01:04,VALID,1005.39,VALID,0,VALID,90.9668,VALID,0,VALID,23.9159,VALID,126,VALID,0.408594,
2010-01-27, 00:02:04,VALID,1005.4,VALID,0,VALID,91.1346,VALID,0,VALID,23.9353,VALID,120,VALID,0.287109,
2010-01-27, 00:03:04,VALID,1005.42,VALID,0,VALID,91.2185,VALID,0,VALID,23.9159,VALID,35,VALID,0.599609,
2010-01-27, 00:04:04,VALID,1005.42,VALID,0,VALID,91.3024,VALID,0,VALID,23.8982,VALID,33,VALID,0.599219,
2010-01-27, 00:05:04,VALID,1005.36,VALID,0,VALID,91.394,VALID,0,VALID,23.8769,VALID,33,VALID,0.371875,
2010-01-27, 00:06:04,VALID,1005.37,VALID,0,VALID,91.4626,VALID,0,VALID,23.8982,VALID,48,VALID,0.380859,
2010-01-27, 00:07:04,VALID,1005.32,VALID,0,VALID,91.5008,VALID,0,VALID,23.8787,VALID,48,VALID,0.114844,
2010-01-27, 00:08:04,VALID,1005.25,VALID,0,VALID,91.5618,VALID,0,VALID,23.8593,VALID,78,VALID,0.567969,
2010-01-27, 00:09:04,VALID,1005.25,VALID,0,VALID,91.6076,VALID,0,VALID,23.8593,VALID,72,VALID,0.659766,
2010-01-27, 00:10:04,VALID,1005.25,VALID,0,VALID,91.6305,VALID,0,VALID,23.838,VALID,28,VALID,0.633984,
2010-01-27, 00:11:04,VALID,1005.19,VALID,0,VALID,91.6991,VALID,0,VALID,23.8593,VALID,54,VALID,0.633984,
2010-01-27, 00:12:04,VALID,1005.17,VALID,0,VALID,91.7449,VALID,0,VALID,23.8593,VALID,57,VALID,0.265625,
2010-01-27, 00:13:04,VALID,1005.15,VALID,0,VALID,91.722,VALID,0,VALID,23.8203,VALID,26,VALID,0.56875,
2010-01-27, 00:14:04,VALID,1005.11,VALID,0,VALID,91.7907,VALID,0,VALID,23.8203,VALID,21,VALID,0.417188,
2010-01-27, 00:15:04,VALID,1005.09,VALID,0,VALID,91.7983,VALID,0,VALID,23.7991,VALID,21,VALID,0,
2010-01-27, 00:16:04,VALID,1005.05,VALID,0,VALID,91.8288,VALID,0,VALID,23.7991,VALID,21,VALID,0.0449219,
2010-01-27, 00:17:04,VALID,1005.05,VALID,0,VALID,91.8288,VALID,0,VALID,23.7991,VALID,21,VALID,0,
2010-01-27, 00:18:04,VALID,1005.04,VALID,0,VALID,91.8594,VALID,0,VALID,23.8203,VALID,21,VALID,0.00273437,
2010-01-27, 00:19:04,VALID,1005.04,VALID,0,VALID,91.8899,VALID,0,VALID,23.8203,VALID,21,VALID,0.157813,
2010-01-27, 00:20:04,VALID,1005.01,VALID,0,VALID,91.867,VALID,0,VALID,23.8185,VALID,21,VALID,0.205859,
2010-01-27, 00:21:04,VALID,1004.99,VALID,0,VALID,91.9051,VALID,0,VALID,23.7991,VALID,21,VALID,0,
2010-01-27, 00:22:04,VALID,1004.98,VALID,0,VALID,91.9585,VALID,0,VALID,23.8575,VALID,21,VALID,0.367969,
2010-01-27, 00:23:04,VALID,1004.96,VALID,0,VALID,92.0196,VALID,0,VALID,23.8769,VALID,21,VALID,0.303516,
2010-01-27, 00:24:04,VALID,1004.93,VALID,0,VALID,92.0958,VALID,0,VALID,23.8769,VALID,21,VALID,0.521484,
2010-01-27, 00:25:04,VALID,1004.88,VALID,0,VALID,92.1187,VALID,0,VALID,23.8769,VALID,21,VALID,0.400781,
2010-01-27, 00:26:04,VALID,1004.88,VALID,0,VALID,92.1187,VALID,0,VALID,23.8575,VALID,21,VALID,0.56875,
2010-01-27, 00:27:04,VALID,1004.82,VALID,0,VALID,92.1645,VALID,0,VALID,23.8769,VALID,21,VALID,0.326172,
2010-01-27, 00:28:04,VALID,1004.81,VALID,0,VALID,92.2179,VALID,0,VALID,23.9159,VALID,21,VALID,0.369922,
2010-01-27, 00:29:04,VALID,1004.78,VALID,0,VALID,92.2789,VALID,0,VALID,23.9159,VALID,21,VALID,0.3625,
2010-01-27, 00:30:04,VALID,1004.75,VALID,0,VALID,92.3247,VALID,0,VALID,23.9159,VALID,21,VALID,0.365625,
2010-01-27, 00:31:04,VALID,1004.72,VALID,0,VALID,92.3629,VALID,0,VALID,23.9159,VALID,21,VALID,0.201562,
2010-01-27, 00:32:04,VALID,1004.71,VALID,0,VALID,92.3857,VALID,0,VALID,23.9159,VALID,21,VALID,0.222266,
2010-01-27, 00:33:04,VALID,1004.7,VALID,0,VALID,92.4086,VALID,0,VALID,23.9353,VALID,21,VALID,0,
2010-01-27, 00:34:04,VALID,1004.69,VALID,0,VALID,92.4468,VALID,0,VALID,23.9548,VALID,21,VALID,0,
2010-01-27, 00:35:04,VALID,1004.74,VALID,0,VALID,92.4925,VALID,0,VALID,23.9724,VALID,21,VALID,0,
2010-01-27, 00:36:04,VALID,1004.7,VALID,0,VALID,92.5154,VALID,0,VALID,23.9919,VALID,21,VALID,0,
2010-01-27, 00:37:04,VALID,1004.7,VALID,0,VALID,92.5612,VALID,0,VALID,23.9937,VALID,21,VALID,0,
2010-01-27, 00:38:04,VALID,1004.72,VALID,0,VALID,92.5688,VALID,0,VALID,24.015,VALID,21,VALID,0,
2010-01-27, 00:39:04,VALID,1004.69,VALID,0,VALID,92.5917,VALID,0,VALID,24.0132,VALID,21,VALID,0,
2010-01-27, 00:40:04,VALID,1004.7,VALID,0,VALID,92.607,VALID,0,VALID,24.0326,VALID,21,VALID,0,
2010-01-27, 00:41:04,VALID,1004.7,VALID,0,VALID,92.6146,VALID,0,VALID,24.0132,VALID,21,VALID,0,
2010-01-27, 00:42:04,VALID,1004.72,VALID,0,VALID,92.6146,VALID,0,VALID,24.0734,VALID,21,VALID,0,
2010-01-27, 00:43:04,VALID,1004.7,VALID,0,VALID,92.6451,VALID,0,VALID,24.0521,VALID,21,VALID,0,
2010-01-27, 00:44:04,VALID,1004.69,VALID,0,VALID,92.6451,VALID,0,VALID,24.0716,VALID,21,VALID,0,
2010-01-27, 00:45:04,VALID,1004.69,VALID,0,VALID,92.6528,VALID,0,VALID,24.091,VALID,21,VALID,0,
2010-01-27, 00:46:04,VALID,1004.68,VALID,0,VALID,92.6604,VALID,0,VALID,24.0716,VALID,21,VALID,0.0277344,
2010-01-27, 00:47:04,VALID,1004.66,VALID,0,VALID,92.6604,VALID,0,VALID,24.0716,VALID,21,VALID,0,
2010-01-27, 00:48:04,VALID,1004.67,VALID,0,VALID,92.668,VALID,0,VALID,24.0716,VALID,21,VALID,0,
2010-01-27, 00:49:04,VALID,1004.66,VALID,0,VALID,92.6604,VALID,0,VALID,24.0716,VALID,21,VALID,0,
2010-01-27, 00:50:04,VALID,1004.65,VALID,0,VALID,92.668,VALID,0,VALID,24.0716,VALID,21,VALID,0.0335938,
2010-01-27, 00:51:04,VALID,1004.65,VALID,0,VALID,92.6604,VALID,0,VALID,24.1318,VALID,21,VALID,0.0078125,
2010-01-27, 00:52:04,VALID,1004.61,VALID,0,VALID,92.6756,VALID,0,VALID,24.1318,VALID,21,VALID,0,
2010-01-27, 00:53:04,VALID,1004.6,VALID,0,VALID,92.668,VALID,0,VALID,24.1105,VALID,20,VALID,0.129688,
2010-01-27, 00:54:04,VALID,1004.61,VALID,0,VALID,92.668,VALID,0,VALID,24.13,VALID,20,VALID,0.179297,
2010-01-27, 00:55:04,VALID,1004.59,VALID,0,VALID,92.6528,VALID,0,VALID,24.13,VALID,20,VALID,0.0140625,
2010-01-27, 00:56:04,VALID,1004.59,VALID,0,VALID,92.6528,VALID,0.100563,VALID,24.1494,VALID,20,VALID,0.133594,
2010-01-27, 00:57:04,VALID,1004.59,VALID,0,VALID,92.6451,VALID,0,VALID,24.13,VALID,20,VALID,0.00585938,
2010-01-27, 00:58:04,VALID,1004.58,VALID,0,VALID,92.6222,VALID,0,VALID,24.13,VALID,20,VALID,0.13125,
2010-01-27, 00:59:04,VALID,1004.57,VALID,0,VALID,92.6222,VALID,0,VALID,24.1689,VALID,20,VALID,0.132813,
2010-01-27, 01:00:04,VALID,1004.56,VALID,0,VALID,92.5993,VALID,0,VALID,24.1884,VALID,18,VALID,0.175781,
2010-01-27, 01:01:04,VALID,1004.54,VALID,0,VALID,92.5612,VALID,0,VALID,24.1902,VALID,18,VALID,0.0910156,
2010-01-27, 01:02:04,VALID,1004.5,VALID,0,VALID,92.546,VALID,0,VALID,24.1884,VALID,347,VALID,0.338281,
2010-01-27, 01:03:04,VALID,1004.51,VALID,0,VALID,92.462,VALID,0,VALID,24.2273,VALID,349,VALID,0.224609,
2010-01-27, 01:04:04,VALID,1004.48,VALID,0,VALID,92.3629,VALID,0,VALID,24.2681,VALID,332,VALID,0.480078,
2010-01-27, 01:05:04,VALID,1004.47,VALID,0,VALID,92.2789,VALID,0,VALID,24.2681,VALID,331,VALID,0.332422,
2010-01-27, 01:06:04,VALID,1004.43,VALID,0,VALID,92.1111,VALID,0,VALID,24.2857,VALID,331,VALID,0.253906,
2010-01-27, 01:07:04,VALID,1004.4,VALID,0,VALID,91.9204,VALID,0,VALID,24.3052,VALID,333,VALID,0,
2010-01-27, 01:08:04,VALID,1004.37,VALID,0,VALID,91.7449,VALID,0,VALID,24.3441,VALID,333,VALID,0,
2010-01-27, 01:09:04,VALID,1004.35,VALID,0,VALID,91.6152,VALID,0,VALID,24.3654,VALID,29,VALID,0.589844,
2010-01-27, 01:10:04,VALID,1004.31,VALID,0,VALID,91.3558,VALID,0,VALID,24.3441,VALID,30,VALID,0.970312,
2010-01-27, 01:11:04,VALID,1004.31,VALID,0,VALID,91.0125,VALID,0,VALID,24.3617,VALID,22,VALID,0.4875,
2010-01-27, 01:12:04,VALID,1004.28,VALID,0,VALID,90.6616,VALID,0,VALID,24.422,VALID,1,VALID,0.762891,
2010-01-27, 01:13:04,VALID,1004.31,VALID,0,VALID,90.2268,VALID,0,VALID,24.4609,VALID,339,VALID,0.562891,
2010-01-27, 01:14:04,VALID,1004.32,VALID,0,VALID,89.7461,VALID,0,VALID,24.4609,VALID,348,VALID,0.65625,
2010-01-27, 01:15:04,VALID,1004.3,VALID,0,VALID,89.4715,VALID,0,VALID,24.5193,VALID,4,VALID,0.935547,
2010-01-27, 01:16:04,VALID,1004.31,VALID,0,VALID,89.2503,VALID,0,VALID,24.5193,VALID,343,VALID,0.976172,
2010-01-27, 01:17:04,VALID,1004.27,VALID,0,VALID,88.5789,VALID,0.100563,VALID,24.5582,VALID,355,VALID,0.997656,
2010-01-27, 01:18:04,VALID,1004.28,VALID,0,VALID,88.167,VALID,0,VALID,24.6166,VALID,358,VALID,1.53242,
2010-01-27, 01:19:04,VALID,1004.24,VALID,0,VALID,87.6863,VALID,0,VALID,24.6556,VALID,358,VALID,1.72891,
2010-01-27, 01:20:04,VALID,1004.19,VALID,0,VALID,87.2896,VALID,0,VALID,24.6945,VALID,353,VALID,1.14883,
2010-01-27, 01:21:04,VALID,1004.17,VALID,0,VALID,87.3736,VALID,0,VALID,24.7335,VALID,4,VALID,1.25,
2010-01-27, 01:22:04,VALID,1004.16,VALID,0,VALID,87.2286,VALID,0,VALID,24.7743,VALID,347,VALID,0.812891,
2010-01-27, 01:23:04,VALID,1004.15,VALID,0,VALID,87.2591,VALID,0,VALID,24.7529,VALID,7,VALID,0.879297,
2010-01-27, 01:24:04,VALID,1004.1,VALID,0,VALID,86.6946,VALID,0,VALID,24.7529,VALID,351,VALID,1.3125,
2010-01-27, 01:25:04,VALID,1004.11,VALID,0,VALID,86.5191,VALID,0.100563,VALID,24.7724,VALID,12,VALID,0.906641,
2010-01-27, 01:26:04,VALID,1004.13,VALID,0,VALID,86.0385,VALID,0.100563,VALID,24.7919,VALID,346,VALID,1.72383,
2010-01-27, 01:27:04,VALID,1004.1,VALID,0,VALID,85.2985,VALID,0,VALID,24.8113,VALID,1,VALID,1.85781,
2010-01-27, 01:28:04,VALID,1004.11,VALID,0,VALID,85.2756,VALID,0,VALID,24.8697,VALID,360,VALID,1.78047,
2010-01-27, 01:29:04,VALID,1004.1,VALID,0,VALID,85.2222,VALID,0,VALID,24.8679,VALID,11,VALID,1.53828,
2010-01-27, 01:30:04,VALID,1004.07,VALID,0,VALID,85.8249,VALID,0,VALID,24.8892,VALID,360,VALID,0.943359,
2010-01-27, 01:31:04,VALID,1004.08,VALID,0,VALID,85.5655,VALID,0,VALID,24.8308,VALID,3,VALID,1.48828,
2010-01-27, 01:32:04,VALID,1004.03,VALID,0,VALID,85.8096,VALID,0,VALID,24.8522,VALID,7,VALID,1.48672,
2010-01-27, 01:33:04,VALID,1004,VALID,0,VALID,85.6418,VALID,0,VALID,24.8308,VALID,7,VALID,1.5125,
2010-01-27, 01:34:04,VALID,1003.97,VALID,0,VALID,85.9927,VALID,0,VALID,24.8308,VALID,360,VALID,1.08711,
2010-01-27, 01:35:04,VALID,1003.99,VALID,0,VALID,86.0461,VALID,0,VALID,24.8113,VALID,3,VALID,1.2207,
2010-01-27, 01:36:04,VALID,1003.96,VALID,0,VALID,85.4816,VALID,0,VALID,24.8113,VALID,17,VALID,1.27227,
2010-01-27, 01:37:04,VALID,1003.95,VALID,0,VALID,85.7105,VALID,0,VALID,24.8327,VALID,5,VALID,0.633984,
2010-01-27, 01:38:04,VALID,1003.96,VALID,0,VALID,85.3977,VALID,0,VALID,24.8132,VALID,7,VALID,1.4043,
2010-01-27, 01:39:04,VALID,1003.95,VALID,0,VALID,84.7721,VALID,0,VALID,24.8132,VALID,17,VALID,1.37344,
2010-01-27, 01:40:04,VALID,1003.94,VALID,0,VALID,84.8179,VALID,0,VALID,24.8522,VALID,360,VALID,1.02852,
2010-01-27, 01:41:04,VALID,1003.93,VALID,0,VALID,85.1765,VALID,0,VALID,24.8327,VALID,346,VALID,0.769531,
2010-01-27, 01:42:04,VALID,1003.93,VALID,0,VALID,85.1917,VALID,0,VALID,24.7919,VALID,19,VALID,1.3875,
2010-01-27, 01:43:04,VALID,1003.95,VALID,0,VALID,85.329,VALID,0,VALID,24.7724,VALID,305,VALID,0.627344,
2010-01-27, 01:44:04,VALID,1003.96,VALID,0,VALID,85.3595,VALID,0,VALID,24.7743,VALID,354,VALID,0.698828,
2010-01-27, 01:45:04,VALID,1003.93,VALID,0,VALID,85.4969,VALID,0,VALID,24.7353,VALID,352,VALID,0.971875,
2010-01-27, 01:46:04,VALID,1003.88,VALID,0,VALID,85.8173,VALID,0,VALID,24.6964,VALID,1,VALID,0.769531,
2010-01-27, 01:47:04,VALID,1003.87,VALID,0,VALID,85.68,VALID,0,VALID,24.6945,VALID,17,VALID,0.739062,
2010-01-27, 01:48:04,VALID,1003.89,VALID,0,VALID,85.8249,VALID,0,VALID,24.6769,VALID,4,VALID,1.27266,
2010-01-27, 01:49:04,VALID,1003.86,VALID,0,VALID,85.9393,VALID,0,VALID,24.6556,VALID,351,VALID,0.905859,
2010-01-27, 01:50:04,VALID,1003.88,VALID,0,VALID,85.8631,VALID,0,VALID,24.6556,VALID,10,VALID,1.30078,
2010-01-27, 01:51:04,VALID,1003.81,VALID,0,VALID,85.7715,VALID,0,VALID,24.6769,VALID,8,VALID,1.45078,
2010-01-27, 01:52:04,VALID,1003.8,VALID,0,VALID,86.069,VALID,0,VALID,24.6361,VALID,360,VALID,1.16289,
2010-01-27, 01:53:04,VALID,1003.76,VALID,0,VALID,85.8631,VALID,0,VALID,24.5972,VALID,4,VALID,1.56914,
2010-01-27, 01:54:04,VALID,1003.74,VALID,0,VALID,85.8096,VALID,0,VALID,24.6361,VALID,355,VALID,0.600781,
2010-01-27, 01:55:04,VALID,1003.74,VALID,0,VALID,85.7486,VALID,0,VALID,24.6166,VALID,343,VALID,0.819531,
2010-01-27, 01:56:04,VALID,1003.73,VALID,0,VALID,85.9775,VALID,0,VALID,24.6185,VALID,360,VALID,0.93125,
2010-01-27, 01:57:04,VALID,1003.74,VALID,0,VALID,85.7486,VALID,0,VALID,24.5972,VALID,9,VALID,1.16875,
2010-01-27, 01:58:04,VALID,1003.75,VALID,0,VALID,85.7868,VALID,0,VALID,24.6166,VALID,339,VALID,0.760938,
2010-01-27, 01:59:04,VALID,1003.7,VALID,0,VALID,85.3824,VALID,0,VALID,24.6166,VALID,26,VALID,1.32227,
2010-01-27, 02:00:04,VALID,1003.7,VALID,0,VALID,85.596,VALID,0,VALID,24.6769,VALID,15,VALID,0.404687,
2010-01-27, 02:01:04,VALID,1003.72,VALID,0,VALID,85.6723,VALID,0,VALID,24.6361,VALID,11,VALID,0.802344,
2010-01-27, 02:02:04,VALID,1003.72,VALID,0,VALID,85.6494,VALID,0,VALID,24.6166,VALID,2,VALID,0.91875,
2010-01-27, 02:03:04,VALID,1003.68,VALID,0,VALID,85.7944,VALID,0,VALID,24.5972,VALID,1,VALID,0.437891,
2010-01-27, 02:04:04,VALID,1003.66,VALID,0,VALID,86.069,VALID,0,VALID,24.5582,VALID,1,VALID,0.368359,
2010-01-27, 02:05:04,VALID,1003.66,VALID,0,VALID,86.42,VALID,0,VALID,24.5193,VALID,19,VALID,0.342969,
2010-01-27, 02:06:04,VALID,1003.64,VALID,0,VALID,86.4352,VALID,0,VALID,24.4804,VALID,355,VALID,0.835938,
2010-01-27, 02:07:04,VALID,1003.61,VALID,0,VALID,86.6793,VALID,0,VALID,24.422,VALID,49,VALID,0.929297,
2010-01-27, 02:08:04,VALID,1003.56,VALID,0,VALID,86.8624,VALID,0,VALID,24.4025,VALID,353,VALID,0.652344,
2010-01-27, 02:09:04,VALID,1003.58,VALID,0,VALID,86.7633,VALID,0,VALID,24.383,VALID,359,VALID,0.673828,
2010-01-27, 02:10:04,VALID,1003.57,VALID,0,VALID,86.9158,VALID,0,VALID,24.383,VALID,16,VALID,0.448047,
2010-01-27, 02:11:04,VALID,1003.56,VALID,0,VALID,87.16,VALID,0,VALID,24.3636,VALID,9,VALID,0.512891,
2010-01-27, 02:12:04,VALID,1003.52,VALID,0,VALID,87.1981,VALID,0,VALID,24.3441,VALID,329,VALID,0.476172,
2010-01-27, 02:13:04,VALID,1003.52,VALID,0,VALID,87.3125,VALID,0,VALID,24.3246,VALID,360,VALID,0.160156,
2010-01-27, 02:14:04,VALID,1003.51,VALID,0,VALID,87.3583,VALID,0,VALID,24.307,VALID,360,VALID,0.46875,
2010-01-27, 02:15:04,VALID,1003.5,VALID,0,VALID,87.4804,VALID,0,VALID,24.2468,VALID,357,VALID,0.505859,
2010-01-27, 02:16:04,VALID,1003.49,VALID,0,VALID,87.6177,VALID,0,VALID,24.2662,VALID,357,VALID,0.323438,
2010-01-27, 02:17:04,VALID,1003.49,VALID,0,VALID,87.6635,VALID,0,VALID,24.2273,VALID,357,VALID,0.467969,
2010-01-27, 02:18:04,VALID,1003.47,VALID,0,VALID,87.7855,VALID,0,VALID,24.2291,VALID,340,VALID,0.428906,
2010-01-27, 02:19:04,VALID,1003.47,VALID,0,VALID,87.8389,VALID,0,VALID,24.2078,VALID,358,VALID,0.511328,
2010-01-27, 02:20:04,VALID,1003.44,VALID,0,VALID,88.0144,VALID,0,VALID,24.2078,VALID,259,VALID,0.238281,
2010-01-27, 02:21:04,VALID,1003.44,VALID,0,VALID,88.1517,VALID,0,VALID,24.2078,VALID,350,VALID,0.428906,
2010-01-27, 02:22:04,VALID,1003.45,VALID,0,VALID,88.2051,VALID,0,VALID,24.2291,VALID,358,VALID,0.603906,
2010-01-27, 02:23:04,VALID,1003.43,VALID,0,VALID,88.2204,VALID,0,VALID,24.1902,VALID,355,VALID,0.780469,
2010-01-27, 02:24:04,VALID,1003.41,VALID,0,VALID,88.289,VALID,0,VALID,24.1476,VALID,347,VALID,0.248437,
2010-01-27, 02:25:04,VALID,1003.4,VALID,0,VALID,88.3195,VALID,0,VALID,24.1494,VALID,347,VALID,0.20625,
2010-01-27, 02:26:04,VALID,1003.43,VALID,0,VALID,88.3729,VALID,0,VALID,24.1105,VALID,346,VALID,0.0746094,
2010-01-27, 02:27:04,VALID,1003.42,VALID,0,VALID,88.4416,VALID,0,VALID,24.1105,VALID,346,VALID,0.253906,
2010-01-27, 02:28:04,VALID,1003.38,VALID,0,VALID,88.4721,VALID,0,VALID,24.1105,VALID,346,VALID,0,
2010-01-27, 02:29:04,VALID,1003.4,VALID,0,VALID,88.6628,VALID,0.100563,VALID,24.091,VALID,346,VALID,0.0667969,
2010-01-27, 02:30:04,VALID,1003.38,VALID,0,VALID,88.7849,VALID,0.100563,VALID,24.0697,VALID,346,VALID,0.100781,
2010-01-27, 02:31:04,VALID,1003.36,VALID,0,VALID,88.8993,VALID,0,VALID,24.0503,VALID,346,VALID,0.143359,
2010-01-27, 02:32:04,VALID,1003.37,VALID,0,VALID,89.0061,VALID,0.100563,VALID,24.0521,VALID,351,VALID,0.724609,
2010-01-27, 02:33:04,VALID,1003.37,VALID,0,VALID,89.0138,VALID,0.100563,VALID,24.0326,VALID,355,VALID,0.445313,
2010-01-27, 02:34:04,VALID,1003.36,VALID,0,VALID,89.0824,VALID,0.100563,VALID,23.9919,VALID,352,VALID,0.461719,
2010-01-27, 02:35:04,VALID,1003.38,VALID,0,VALID,89.0748,VALID,0.100563,VALID,24.0132,VALID,345,VALID,0.539844,
2010-01-27, 02:36:04,VALID,1003.36,VALID,0,VALID,89.0519,VALID,0.100563,VALID,24.0132,VALID,344,VALID,0.521094,
2010-01-27, 02:37:04,VALID,1003.35,VALID,0,VALID,89.113,VALID,0,VALID,24.0132,VALID,344,VALID,0.365234,
2010-01-27, 02:38:04,VALID,1003.39,VALID,0,VALID,89.0214,VALID,0.100563,VALID,24.0132,VALID,344,VALID,0.405859,
2010-01-27, 02:39:04,VALID,1003.37,VALID,0,VALID,89.0061,VALID,0.100563,VALID,24.0132,VALID,344,VALID,0.276172,
2010-01-27, 02:40:04,VALID,1003.41,VALID,0,VALID,88.9833,VALID,0,VALID,24.0132,VALID,322,VALID,0.341016,
2010-01-27, 02:41:04,VALID,1003.41,VALID,0,VALID,89.0901,VALID,0,VALID,23.9937,VALID,339,VALID,0.570703,
2010-01-27, 02:42:04,VALID,1003.47,VALID,0,VALID,88.9909,VALID,0,VALID,23.9742,VALID,358,VALID,0.422656,
2010-01-27, 02:43:04,VALID,1003.47,VALID,0,VALID,89.0901,VALID,0,VALID,23.9724,VALID,358,VALID,0.125,
2010-01-27, 02:44:04,VALID,1003.48,VALID,0,VALID,89.0061,VALID,0,VALID,23.9919,VALID,357,VALID,0.438672,
2010-01-27, 02:45:04,VALID,1003.51,VALID,0,VALID,88.9909,VALID,0,VALID,24.0326,VALID,356,VALID,0,
2010-01-27, 02:46:04,VALID,1003.51,VALID,0,VALID,88.9833,VALID,0,VALID,24.0345,VALID,356,VALID,0.00078125,
2010-01-27, 02:47:04,VALID,1003.53,VALID,0,VALID,88.9451,VALID,0,VALID,24.0539,VALID,356,VALID,0.239063,
2010-01-27, 02:48:04,VALID,1003.55,VALID,0,VALID,88.9909,VALID,0,VALID,24.0326,VALID,302,VALID,0.30625,
2010-01-27, 02:49:04,VALID,1003.55,VALID,0,VALID,88.8078,VALID,0,VALID,24.0326,VALID,305,VALID,0.413281,
2010-01-27, 02:50:04,VALID,1003.58,VALID,0,VALID,88.4798,VALID,0,VALID,24.0716,VALID,338,VALID,0.570313,
2010-01-27, 02:51:04,VALID,1003.61,VALID,0,VALID,88.5332,VALID,0,VALID,24.1105,VALID,341,VALID,0.383984,
2010-01-27, 02:52:04,VALID,1003.61,VALID,0,VALID,88.6476,VALID,0,VALID,24.13,VALID,341,VALID,0.319141,
2010-01-27, 02:53:04,VALID,1003.64,VALID,0,VALID,88.9299,VALID,0,VALID,24.1105,VALID,340,VALID,0.575781,
2010-01-27, 02:54:04,VALID,1003.66,VALID,0,VALID,88.5637,VALID,0,VALID,24.1105,VALID,337,VALID,0.430469,
2010-01-27, 02:55:04,VALID,1003.67,VALID,0,VALID,88.701,VALID,0,VALID,24.13,VALID,335,VALID,0.344922,
2010-01-27, 02:56:04,VALID,1003.67,VALID,0,VALID,88.6781,VALID,0,VALID,24.13,VALID,333,VALID,0.586328,
2010-01-27, 02:57:04,VALID,1003.69,VALID,0,VALID,88.3958,VALID,0,VALID,24.13,VALID,351,VALID,0.892578,
2010-01-27, 02:58:04,VALID,1003.69,VALID,0,VALID,88.4874,VALID,0,VALID,24.1689,VALID,349,VALID,0.418359,
2010-01-27, 02:59:04,VALID,1003.71,VALID,0,VALID,88.2814,VALID,0,VALID,24.1689,VALID,343,VALID,0.518359,
2010-01-27, 03:00:04,VALID,1003.72,VALID,0,VALID,88.4645,VALID,0.100563,VALID,24.1671,VALID,344,VALID,0.503906,
2010-01-27, 03:01:04,VALID,1003.71,VALID,0,VALID,88.2967,VALID,0,VALID,24.1884,VALID,345,VALID,0.469922,
2010-01-27, 03:02:04,VALID,1003.71,VALID,0,VALID,88.1975,VALID,0,VALID,24.2078,VALID,345,VALID,0.474609,
2010-01-27, 03:03:04,VALID,1003.7,VALID,0,VALID,88.289,VALID,0,VALID,24.2273,VALID,352,VALID,0.580469,
2010-01-27, 03:04:04,VALID,1003.72,VALID,0,VALID,88.3958,VALID,0.100563,VALID,24.2468,VALID,352,VALID,0.476953,
2010-01-27, 03:05:04,VALID,1003.72,VALID,0,VALID,88.5103,VALID,0.100563,VALID,24.2662,VALID,352,VALID,0.54375,
2010-01-27, 03:06:04,VALID,1003.73,VALID,0,VALID,88.4264,VALID,0.100563,VALID,24.2662,VALID,337,VALID,0.558203,
2010-01-27, 03:07:04,VALID,1003.72,VALID,0,VALID,88.4569,VALID,0,VALID,24.2857,VALID,337,VALID,0.403125,
2010-01-27, 03:08:04,VALID,1003.73,VALID,0,VALID,88.3348,VALID,0,VALID,24.3052,VALID,338,VALID,0.443359,
2010-01-27, 03:09:04,VALID,1003.74,VALID,0,VALID,88.2738,VALID,0,VALID,24.3246,VALID,341,VALID,0.662891,
2010-01-27, 03:10:04,VALID,1003.74,VALID,0,VALID,88.3272,VALID,0.100563,VALID,24.3441,VALID,15,VALID,0.837891,
2010-01-27, 03:11:04,VALID,1003.73,VALID,0,VALID,88.2204,VALID,0.100563,VALID,24.3849,VALID,335,VALID,0.817187,
2010-01-27, 03:12:04,VALID,1003.73,VALID,0,VALID,88.1288,VALID,0,VALID,24.3617,VALID,344,VALID,0.377344,
2010-01-27, 03:13:04,VALID,1003.7,VALID,0,VALID,88.0449,VALID,0,VALID,24.383,VALID,344,VALID,0.2375,
2010-01-27, 03:14:04,VALID,1003.69,VALID,0,VALID,87.9915,VALID,0,VALID,24.383,VALID,351,VALID,0.549609,
2010-01-27, 03:15:04,VALID,1003.7,VALID,0,VALID,88.1593,VALID,0,VALID,24.422,VALID,351,VALID,0.101563,
2010-01-27, 03:16:04,VALID,1003.72,VALID,0,VALID,88.0754,VALID,0,VALID,24.4433,VALID,351,VALID,0.303125,
2010-01-27, 03:17:04,VALID,1003.71,VALID,0,VALID,88.0525,VALID,0,VALID,24.4628,VALID,351,VALID,0.317969,
2010-01-27, 03:18:04,VALID,1003.7,VALID,0,VALID,87.9534,VALID,0,VALID,24.4609,VALID,333,VALID,0.522656,
2010-01-27, 03:19:04,VALID,1003.73,VALID,0,VALID,88.0525,VALID,0,VALID,24.4998,VALID,327,VALID,0.210156,
2010-01-27, 03:20:04,VALID,1003.73,VALID,0,VALID,87.9381,VALID,0,VALID,24.5406,VALID,342,VALID,1.09414,
2010-01-27, 03:21:04,VALID,1003.76,VALID,0,VALID,87.8694,VALID,0,VALID,24.5777,VALID,347,VALID,0.708203,
2010-01-27, 03:22:04,VALID,1003.75,VALID,0,VALID,87.5414,VALID,0,VALID,24.638,VALID,342,VALID,0.877734,
2010-01-27, 03:23:04,VALID,1003.74,VALID,0,VALID,87.3888,VALID,0,VALID,24.6964,VALID,343,VALID,0.417969,
2010-01-27, 03:24:04,VALID,1003.75,VALID,0,VALID,87.1523,VALID,0,VALID,24.7353,VALID,347,VALID,1.18242,
2010-01-27, 03:25:04,VALID,1003.76,VALID,0,VALID,86.9387,VALID,0,VALID,24.7529,VALID,348,VALID,0.489453,
2010-01-27, 03:26:04,VALID,1003.74,VALID,0,VALID,86.9998,VALID,0,VALID,24.7724,VALID,337,VALID,0.289063,
2010-01-27, 03:27:04,VALID,1003.78,VALID,0,VALID,86.8548,VALID,0,VALID,24.7724,VALID,350,VALID,0.579297,
2010-01-27, 03:28:04,VALID,1003.76,VALID,0,VALID,86.8472,VALID,0,VALID,24.8327,VALID,351,VALID,0.144141,
2010-01-27, 03:29:04,VALID,1003.78,VALID,0,VALID,86.8701,VALID,0,VALID,24.8113,VALID,338,VALID,0.808984,
2010-01-27, 03:30:04,VALID,1003.78,VALID,0,VALID,86.954,VALID,0,VALID,24.8113,VALID,340,VALID,0.338672,
2010-01-27, 03:31:04,VALID,1003.82,VALID,0,VALID,86.5573,VALID,0,VALID,24.8308,VALID,342,VALID,0.685156,
2010-01-27, 03:32:04,VALID,1003.83,VALID,0,VALID,86.5802,VALID,0,VALID,24.8697,VALID,349,VALID,0.442969,
2010-01-27, 03:33:04,VALID,1003.84,VALID,0,VALID,86.4428,VALID,0,VALID,24.8503,VALID,345,VALID,0.469141,
2010-01-27, 03:34:04,VALID,1003.85,VALID,0,VALID,86.5802,VALID,0,VALID,24.8503,VALID,351,VALID,0.489453,
2010-01-27, 03:35:04,VALID,1003.88,VALID,0,VALID,86.7404,VALID,0,VALID,24.8697,VALID,19,VALID,0.402734,
2010-01-27, 03:36:05,VALID,1003.92,VALID,0,VALID,86.6793,VALID,0,VALID,24.8503,VALID,6,VALID,0.540625,
2010-01-27, 03:37:05,VALID,1003.93,VALID,0,VALID,86.6793,VALID,0,VALID,24.8697,VALID,346,VALID,0.300391,
2010-01-27, 03:38:05,VALID,1003.95,VALID,0,VALID,86.7861,VALID,0,VALID,24.8697,VALID,346,VALID,0.169922,
2010-01-27, 03:39:05,VALID,1003.94,VALID,0,VALID,86.7861,VALID,0,VALID,24.8697,VALID,344,VALID,0.40625,
2010-01-27, 03:40:05,VALID,1003.96,VALID,0,VALID,86.8319,VALID,0,VALID,24.8484,VALID,345,VALID,0.368359,
2010-01-27, 03:41:05,VALID,1004,VALID,0,VALID,86.5802,VALID,0,VALID,24.8503,VALID,278,VALID,0.127344,
2010-01-27, 03:42:05,VALID,1003.97,VALID,0,VALID,86.6336,VALID,0,VALID,24.8697,VALID,339,VALID,0.45,
2010-01-27, 03:43:05,VALID,1004,VALID,0,VALID,86.7785,VALID,0,VALID,24.9106,VALID,312,VALID,0.242578,
2010-01-27, 03:44:05,VALID,1004,VALID,0,VALID,86.7556,VALID,0,VALID,24.8911,VALID,317,VALID,0.265234,
2010-01-27, 03:45:05,VALID,1003.99,VALID,0,VALID,86.7633,VALID,0,VALID,24.8679,VALID,317,VALID,0.119922,
2010-01-27, 03:46:05,VALID,1003.97,VALID,0,VALID,86.7938,VALID,0,VALID,24.9106,VALID,347,VALID,0.321484,